Overview Statistics Trail Chart Weather Telemetry Raw packets
 

This is the latest recevied weather packets stored in our database for station/object KC4GS-13. If no packets are shown the sender has not sent any weather packets the latest 10 day(s).

<< 26 27 28 29 30 31 32 >>
Time Temp. Humidity Pressure Rain* Wind** Luminosity Snow
1788441679 27.22° C 82% 1019.9 hPa 0 mm - 63 W/m² -
1788441379 26.67° C 84% 1019.9 hPa 0 mm - 61 W/m² -
1788441078 26.11° C 87% 1019.9 hPa 0 mm - 56 W/m² -
1788440775 25.56° C 88% 1020 hPa 0 mm - 55 W/m² -
1788440469 25.56° C 90% 1020.2 hPa 0 mm - 55 W/m² -
1788440167 25° C 91% 1020.2 hPa 0 mm - 55 W/m² -
1788439862 25° C 92% 1019.9 hPa 0 mm - 50 W/m² -
1788439556 25° C 92% 1020.2 hPa 0 mm - 47 W/m² -
1788439251 24.44° C 92% 1020.2 hPa 0 mm - 45 W/m² -
1788438950 24.44° C 93% 1020.2 hPa 0 mm - 43 W/m² -
1788438649 23.89° C 93% 1020 hPa 0 mm - 42 W/m² -
1788438349 23.89° C 93% 1019.9 hPa 0 mm - 40 W/m² -
1788438049 23.33° C 93% 1020.1 hPa 0 mm - 39 W/m² -
1788437743 23.33° C 93% 1020 hPa 0 mm - 36 W/m² -
1788437439 23.33° C 93% 1020.2 hPa 0 mm - 34 W/m² -
1788437138 23.33° C 93% 1019.8 hPa 0 mm - 31 W/m² -
1788436833 23.33° C 93% 1019.9 hPa 0 mm - 30 W/m² -
1788436531 23.33° C 93% 1020 hPa 0 mm - 28 W/m² -
1788436226 22.78° C 93% 1020 hPa 0 mm - 32 W/m² -
1788435921 22.78° C 93% 1019.7 hPa 0 mm - 21 W/m² -
1788435617 22.78° C 93% 1019.7 hPa 0 mm - 16 W/m² -
1788435313 22.78° C 93% 1019.5 hPa 0 mm - 16 W/m² -
1788435009 22.78° C 93% 1019.9 hPa 0 mm - 11 W/m² -
1788434704 22.78° C 93% 1019.5 hPa 0 mm - 8 W/m² -
1788434403 22.78° C 93% 1019.5 hPa 0 mm - 6 W/m² -

* Rain latest hour (hover to see other rain measurements)
** Current wind speed in m/s (hover to see current wind gust speed)